#timestamp,LO_Frequency,Hit,StdDev 
1549688415.7,286046996.0,Y
1549688435.5,286046996.8,P
1549688455.4,286046998.0,P
1549688475.2,286046995.5,P
1549688495.0,286046995.9,Y
1549688495.9,286046995.9,P
1549688515.8,286046996.5,P
1549688535.6,286046998.2,P
1549688555.5,286046996.7,Y
1549688575.3,286047000.1,P
1549688595.1,286047001.2,N
1549688615.9,286047002.3,N
1549688635.7,286047000.7,N
1549688655.6,286047000.9,N
1549688675.4,286046999.8,N
1549688695.2,286047001.0,N
1549688715.1,286047001.1,N
1549688716.0,286047001.1,N
1549688735.8,286047000.4,N
1549688755.6,286047002.8,N
1549688775.5,286047002.2,N
1549688795.3,286047002.5,N
1549688815.2,286047002.3,N
1549688835.9,286047002.2,N
1549688855.7,286047002.0,N
1549688875.6,286047001.5,N
1549688895.4,286047002.1,N
1549688915.2,286047002.1,N
1549688935.1,286047002.1,N
1549688936.0,286047002.1,N
1549688955.8,286047001.8,N
1549688975.7,286047011.9,Y
1549688995.5,286046998.3,P
1549689015.3,286047000.5,N
1549689035.2,286046998.4,N
1549689055.0,286047001.0,N
1549689055.9,286047001.0,N
1549689075.8,286046999.4,N
1549689095.6,286046999.0,N
1549689115.4,286046998.7,N
1549689135.3,286046996.5,Y
1549689155.1,286046999.6,P
1549689175.8,286046998.9,P
1549689195.7,286047001.0,N
1549689215.5,286047000.9,N
1549689235.4,286046998.7,N
1549689255.2,286046998.5,N
1549689275.0,286046999.1,N
1549689275.9,286046999.1,N
1549689295.8,286046998.9,N
1549689315.6,286046999.4,N
1549689335.4,286046997.8,N
1549689355.3,286046998.7,N
1549689375.1,286047000.1,N
1549689395.9,286047001.1,N
1549689415.7,286046998.7,N
1549689435.5,286046996.5,Y
1549689455.4,286046998.7,P
1549689475.2,286046998.8,P
1549689495.1,286046998.5,P
1549689496.0,286046998.5,Y
1549689515.8,286047000.3,P
1549689535.6,286046998.1,N
1549689555.5,286046998.9,N
1549689575.3,286046996.6,Y
1549689595.5,286046999.5,P
1549689615.4,286046997.7,P
1549689635.2,286046997.6,P
1549689655.1,286046999.2,N
1549689656.0,286046999.2,N
1549689675.8,286046998.3,N
1549689695.6,286046998.7,N
1549689715.5,286046998.2,N
1549689735.3,286046996.8,Y
1549689755.1,286046998.6,P
1549689775.9,286046999.0,P
1549689795.7,286046999.3,P
1549689815.6,286047002.8,Y
1549689835.4,286047001.8,P
1549689855.2,286047001.5,N
1549689875.1,286047004.3,P
1549689876.0,286047004.3,N
1549689895.8,286047002.6,N
1549689915.6,286047001.3,N
1549689935.5,286047002.7,N
1549689955.3,286047002.8,N
1549689975.2,286047002.7,N
1549689995.9,286047011.9,Y
1549690015.7,286046998.9,P
1549690035.6,286046999.4,N
1549690055.4,286046996.9,N
1549690075.3,286046998.9,N
1549690095.1,286047000.1,N
1549690096.0,286047000.1,N
1549690115.8,286047000.4,N
1549690135.7,286046998.9,N
1549690155.2,286046998.1,N
1549690175.0,286046998.9,N
1549690175.9,286046998.9,N
1549690195.7,286046997.0,N
1549690215.6,286046996.1,N
1549690235.1,286046997.6,N
1549690236.0,286046997.6,N
1549690255.8,286046996.2,N
1549690275.7,286046995.5,N
1549690295.5,286046995.7,N
1549690315.3,286046993.7,Y
1549690335.2,286046998.0,P
1549690355.9,286046996.7,P
1549690375.7,286046997.7,P
1549690395.6,286046997.9,Y
1549690415.4,286046998.4,P
1549690435.3,286046998.8,P
1549690455.1,286047001.1,N
1549690456.0,286047001.1,N
1549690475.8,286047000.9,N
1549690495.7,286047000.0,N
1549690515.5,286047000.5,N
1549690535.3,286046999.7,N
1549690555.2,286047002.5,N
1549690575.0,286047002.6,N
1549690575.9,286047002.6,N
1549690595.8,286047002.3,N
1549690615.6,286047003.6,N
1549690635.4,286047003.5,N
1549690655.3,286047005.4,Y
1549690675.1,286047002.9,P
1549690695.9,286047005.5,P
1549690715.7,286047005.5,N
1549690735.5,286047005.3,N
1549690755.4,286047007.4,Y
1549690775.2,286047004.3,P
1549690795.0,286047002.5,P
1549690795.9,286047002.5,P
1549690815.8,286047002.2,N
1549690835.6,286047002.4,N
1549690855.5,286047000.2,N
1549690875.3,286046999.9,N
1549690895.1,286047002.7,N
1549690915.9,286047001.3,N
1549690935.7,286047002.6,N
1549690955.5,286047000.2,N
1549690975.4,286047002.3,N
1549690995.2,286047000.2,N
1549691015.1,286047002.0,N
1549691016.0,286047002.0,N
1549691035.8,286047000.2,N
1549691055.6,286047002.5,N
1549691075.5,286047001.5,N
1549691095.3,286047003.8,Y
1549691115.2,286046999.9,P
1549691135.9,286047001.1,N
1549691155.7,286046998.4,N
1549691175.6,286046998.7,N
1549691195.4,286046998.6,N
1549691215.2,286046999.3,N
1549691235.1,286047001.2,N
1549691236.0,286047001.2,N
1549691255.8,286047002.3,N
1549691275.7,286047000.0,N
1549691295.5,286047001.0,N
1549691315.3,286047000.5,N
1549691335.2,286047001.0,N
1549691355.0,286046998.4,N
1549691355.9,286046998.4,N
1549691375.7,286047001.0,N
1549691395.6,286046998.6,N
1549691415.4,286047000.3,N
1549691435.3,286046998.6,N
1549691455.1,286046998.4,N
1549691456.0,286046998.4,N
1549691475.8,286046999.6,N
1549691495.7,286047000.6,N
1549691515.5,286046998.6,N
1549691535.3,286047001.0,N
1549691555.2,286047002.3,N
1549691575.0,286047001.9,N
1549691575.9,286047001.9,N
1549691595.8,286047002.4,N
1549691615.6,286046999.7,N
1549691635.4,286047001.8,N
1549691655.3,286047002.2,N
1549691675.1,286046999.9,N
1549691695.9,286047000.3,N
1549691715.7,286047000.3,N
1549691735.5,286046998.1,N
1549691755.4,286047000.6,N
1549691775.2,286047000.0,N
1549691795.0,286047000.5,N
1549691795.9,286047000.5,N
1549691815.8,286046999.9,N
1549691835.6,286047002.8,N
1549691855.5,286047000.8,N
1549691875.3,286047000.3,N
1549691895.1,286047001.3,N
1549691915.9,286047001.4,N
1549691935.7,286047001.3,N
1549691955.5,286047001.9,N
1549691975.4,286047000.5,N
1549691995.2,286047000.5,N
